Temp
-20 -20 -20 -20 -20 -20 -19 -19 -19 -19 -19 -19 -19 -19 -19 -19 -19 -19 -19 -19 -18 -18 -17 -17 -17 -16 -16 -15 -15 -15 -15 -15 -15 -14 -17 -16 -15 -14 -13 -14 -14 -14 -14 -14 -14 -14 -13 -11 -11 -11 -11 -11 -11 -11
-20 -20 -20 -20 -20 -20 -20 -19 -19 -19 -19 -19 -19 -19 -19 -19 -19 -19 -18 -18 -18 -18 -18 -18 -18 -17 -17 -16 -16 -16 -16 -16 -16 -16 -16 -15 -15 -14 -15 -15 -13 -13 -13 -14 -14 -13 -11 -11 -11 -11 -11 -11 -11 -11
-20 -20 -20 -20 -20 -20 -20 -19 -19 -19 -19 -19 -18 -19 -19 -19 -19 -18 -18 -18 -18 -18 -18 -18 -18 -18 -18 -17 -17 -17 -17 -17 -17 -16 -16 -16 -15 -15 -16 -15 -14 -13 -13 -13 -13 -12 -12 -12 -12 -11 -11 -11 -11 -10
-21 -20 -20 -20 -20 -20 -20 -19 -19 -19 -19 -19 -19 -18 -18 -18 -18 -18 -18 -18 -18 -18 -18 -18 -18 -18 -18 -18 -18 -18 -18 -18 -17 -16 -16 -17 -17 -16 -17 -17 -15 -15 -14 -14 -14 -13 -13 -13 -13 -12 -11 -11 -11 -10
-21 -21 -20 -20 -20 -20 -20 -19 -19 -19 -19 -19 -18 -18 -18 -18 -18 -18 -18 -18 -18 -18 -18 -18 -18 -18 -18 -18 -18 -18 -19 -18 -18 -17 -17 -17 -17 -17 -17 -16 -15 -15 -15 -15 -16 -13 -13 -13 -14 -13 -12 -12 -11 -11
-21 -21 -21 -20 -20 -20 -20 -20 -19 -19 -19 -19 -19 -18 -18 -18 -18 -18 -17 -18 -18 -18 -17 -17 -18 -18 -18 -18 -18 -18 -19 -18 -19 -18 -17 -17 -17 -17 -17 -17 -17 -15 -15 -16 -15 -15 -14 -14 -14 -13 -13 -12 -12 -11
-21 -21 -21 -20 -20 -20 -20 -20 -19 -19 -19 -19 -19 -18 -18 -18 -18 -17 -17 -17 -17 -18 -18 -18 -18 -18 -18 -18 -18 -18 -18 -19 -18 -19 -18 -18 -17 -16 -17 -17 -16 -16 -16 -15 -15 -15 -15 -14 -14 -13 -13 -13 -13 -12
-22 -21 -21 -21 -20 -20 -20 -20 -20 -19 -19 -19 -19 -18 -18 -18 -18 -18 -17 -17 -17 -18 -18 -18 -18 -18 -19 -19 -19 -19 -19 -19 -18 -18 -18 -18 -17 -17 -17 -17 -17 -16 -16 -16 -15 -15 -15 -14 -14 -14 -13 -13 -13 -13
-22 -22 -21 -21 -21 -20 -20 -20 -20 -19 -19 -19 -19 -18 -18 -18 -18 -18 -18 -18 -18 -18 -18 -19 -19 -19 -19 -19 -19 -19 -19 -19 -19 -18 -18 -18 -18 -17 -16 -17 -17 -17 -17 -17 -15 -15 -14 -14 -14 -14 -14 -14 -13 -13
-23 -22 -22 -21 -21 -21 -21 -20 -20 -20 -19 -19 -19 -19 -19 -18 -18 -18 -18 -18 -18 -19 -19 -19 -19 -20 -20 -20 -20 -19 -20 -19 -19 -19 -19 -18 -17 -16 -16 -17 -17 -17 -17 -16 -16 -15 -15 -15 -15 -14 -14 -14 -13 -13
-24 -23 -22 -22 -22 -21 -21 -21 -20 -20 -20 -20 -19 -19 -19 -18 -18 -18 -18 -19 -19 -19 -19 -19 -19 -20 -20 -20 -20 -20 -19 -19 -19 -19 -18 -18 -17 -17 -17 -17 -17 -16 -16 -16 -16 -16 -16 -15 -15 -15 -14 -14 -14 -14
-24 -24 -24 -22 -22 -22 -21 -21 -21 -20 -20 -20 -20 -19 -19 -19 -19 -19 -19 -19 -19 -19 -19 -20 -20 -20 -20 -20 -20 -19 -19 -19 -19 -18 -18 -17 -17 -17 -17 -16 -15 -16 -16 -16 -16 -16 -15 -15 -15 -14 -14 -14 -14 -14
-25 -25 -24 -24 -22 -22 -21 -21 -21 -20 -20 -20 -20 -19 -19 -19 -19 -19 -19 -19 -18 -19 -19 -20 -20 -20 -20 -20 -20 -19 -19 -19 -19 -18 -17 -18 -18 -17 -16 -16 -16 -16 -16 -15 -16 -16 -15 -15 -15 -15 -14 -14 -14 -14
-26 -25 -24 -24 -23 -22 -21 -21 -21 -20 -20 -20 -20 -19 -19 -19 -19 -19 -19 -18 -19 -19 -19 -20 -19 -19 -19 -19 -19 -19 -19 -18 -18 -18 -18 -18 -17 -16 -16 -16 -16 -16 -16 -16 -16 -16 -15 -15 -15 -15 -15 -15 -15 -15
-27 -26 -25 -24 -23 -22 -22 -21 -21 -21 -20 -20 -20 -19 -19 -19 -19 -19 -19 -18 -18 -19 -19 -19 -19 -18 -19 -19 -18 -18 -18 -18 -18 -17 -17 -17 -17 -17 -16 -16 -16 -16 -16 -16 -16 -16 -16 -15 -15 -15 -15 -15 -15 -14
-27 -27 -26 -25 -24 -23 -22 -21 -21 -20 -20 -20 -20 -19 -19 -19 -19 -19 -19 -18 -18 -18 -18 -18 -18 -18 -19 -18 -18 -18 -18 -18 -17 -17 -17 -17 -17 -17 -16 -16 -16 -16 -16 -16 -16 -15 -15 -15 -15 -16 -15 -15 -14 -14
-27 -27 -26 -25 -24 -23 -22 -21 -21 -20 -20 -20 -19 -19 -19 -19 -19 -19 -18 -18 -18 -18 -18 -18 -18 -18 -18 -18 -18 -18 -18 -17 -17 -17 -17 -16 -16 -16 -16 -16 -16 -16 -16 -15 -15 -15 -15 -15 -15 -14 -14 -14 -14 -14
-27 -27 -26 -25 -24 -23 -23 -22 -21 -20 -20 -20 -19 -19 -19 -18 -19 -19 -19 -19 -18 -18 -18 -18 -18 -18 -18 -18 -18 -17 -17 -17 -17 -16 -17 -16 -16 -16 -16 -15 -15 -16 -15 -16 -16 -15 -15 -15 -14 -15 -15 -14 -15 -15
-28 -27 -26 -25 -24 -23 -23 -22 -21 -21 -20 -20 -19 -19 -19 -18 -19 -19 -18 -18 -18 -18 -17 -18 -18 -18 -18 -17 -17 -17 -17 -16 -16 -16 -16 -16 -16 -15 -15 -15 -15 -15 -15 -15 -15 -15 -15 -15 -15 -15 -15 -15 -15 -15
-28 -27 -26 -25 -24 -24 -23 -22 -22 -21 -20 -20 -19 -19 -19 -19 -18 -18 -18 -18 -18 -17 -17 -17 -17 -17 -17 -16 -16 -16 -16 -15 -16 -16 -15 -16 -15 -15 -15 -15 -15 -15 -15 -15 -15 -15 -15 -15 -15 -16 -15 -15 -15 -16
-28 -26 -25 -25 -24 -23 -23 -22 -22 -21 -20 -20 -19 -19 -19 -18 -19 -18 -18 -18 -18 -17 -17 -17 -16 -16 -16 -16 -16 -16 -15 -15 -15 -15 -15 -15 -15 -15 -15 -15 -14 -15 -15 -15 -15 -15 -15 -16 -16 -16 -16 -16 -16 -16
-27 -25 -25 -24 -24 -23 -22 -22 -21 -20 -20 -20 -20 -19 -19 -19 -19 -18 -18 -17 -17 -17 -17 -17 -16 -16 -16 -16 -16 -16 -15 -15 -15 -15 -15 -15 -15 -15 -15 -15 -15 -15 -15 -15 -15 -16 -16 -16 -16 -16 -16 -16 -17 -17
-26 -25 -24 -24 -23 -22 -22 -22 -21 -20 -20 -20 -19 -19 -19 -19 -18 -18 -18 -17 -17 -17 -17 -16 -17 -16 -16 -16 -16 -16 -16 -16 -16 -15 -15 -15 -15 -15 -15 -16 -15 -16 -16 -16 -16 -16 -16 -16 -17 -17 -17 -17 -17 -17
-24 -24 -24 -23 -22 -22 -22 -21 -21 -20 -20 -20 -19 -19 -19 -18 -18 -18 -18 -17 -17 -17 -17 -17 -16 -16 -16 -16 -16 -16 -16 -16 -16 -16 -16 -16 -16 -16 -16 -16 -16 -16 -16 -16 -16 -16 -17 -17 -17 -17 -17 -17 -17 -17
-24 -23 -23 -22 -22 -21 -21 -21 -20 -20 -20 -19 -19 -19 -18 -18 -18 -18 -17 -17 -17 -17 -17 -17 -17 -17 -17 -17 -16 -16 -16 -16 -16 -16 -16 -16 -16 -16 -16 -16 -17 -17 -17 -17 -17 -17 -17 -17 -17 -17 -17 -17 -17 -17
-23 -22 -22 -22 -21 -21 -21 -20 -20 -20 -19 -19 -19 -18 -18 -18 -18 -17 -17 -17 -17 -17 -17 -17 -17 -17 -17 -17 -17 -17 -17 -17 -17 -17 -17 -17 -17 -17 -17 -17 -17 -17 -17 -17 -17 -17 -17 -17 -17 -17 -17 -17 -17 -17
-22 -22 -21 -21 -21 -20 -20 -20 -20 -19 -19 -19 -19 -19 -18 -18 -17 -17 -18 -18 -17 -17 -17 -17 -17 -17 -17 -17 -17 -17 -17 -17 -17 -17 -17 -17 -17 -17 -17 -17 -17 -17 -17 -17 -17 -17 -17 -17 -17 -17 -18 -18 -18 -18
-21 -21 -20 -20 -20 -20 -19 -19 -19 -19 -19 -19 -19 -19 -18 -18 -17 -18 -18 -18 -18 -18 -17 -18 -17 -18 -18 -18 -18 -18 -18 -18 -18 -18 -18 -18 -18 -18 -18 -17 -17 -17 -17 -17 -17 -17 -18 -18 -18 -18 -18 -18 -18 -18
-20 -20 -20 -19 -19 -19 -19 -19 -19 -19 -19 -19 -19 -19 -18 -18 -18 -18 -18 -18 -18 -18 -18 -18 -18 -18 -18 -18 -18 -18 -18 -18 -18 -18 -18 -18 -18 -18 -17 -17 -17 -18 -18 -18 -18 -18 -18 -18 -18 -18 -18 -18 -18 -19
-20 -20 -19 -19 -19 -19 -19 -19 -19 -19 -19 -19 -19 -19 -18 -18 -18 -18 -18 -18 -18 -18 -18 -18 -18 -18 -18 -18 -18 -18 -18 -18 -18 -18 -18 -18 -18 -18 -18 -18 -18 -18 -18 -18 -18 -18 -18 -19 -19 -19 -19 -19 -20 -20
-20 -20 -20 -19 -19 -19 -19 -19 -19 -19 -19 -19 -19 -19 -19 -19 -19 -19 -19 -19 -18 -18 -18 -18 -18 -18 -18 -18 -18 -18 -18 -18 -18 -18 -18 -18 -18 -18 -18 -18 -18 -18 -18 -19 -19 -19 -19 -20 -20 -20 -20 -20 -21 -21
-19 -20 -20 -20 -19 -19 -20 -19 -19 -19 -19 -19 -19 -19 -19 -19 -19 -19 -19 -18 -19 -18 -18 -18 -18 -19 -19 -19 -19 -19 -19 -19 -19 -19 -19 -19 -19 -19 -19 -19 -19 -19 -20 -20 -20 -20 -20 -20 -21 -21 -21 -21 -21 -21
-20 -20 -21 -20 -20 -20 -20 -20 -20 -19 -19 -19 -19 -19 -19 -19 -19 -19 -19 -19 -19 -19 -19 -19 -19 -19 -19 -19 -19 -19 -19 -20 -20 -20 -20 -20 -20 -20 -20 -20 -20 -20 -20 -20 -20 -20 -20 -20 -20 -20 -20 -21 -21 -21
Height
5654 5654 5654 5654 5654 5654 5654 5653 5651 5650 5648 5645 5642 5639 5636 5633 5631 5630 5631 5631 5635 5639 5644 5651 5657 5663 5669 5675 5682 5688 5694 5698 5705 5711 5721 5724 5731 5735 5739 5745 5750 5753 5757 5763 5765 5767 5771 5770 5778 5782 5784 5788 5790 5792
5648 5649 5649 5650 5650 5650 5650 5650 5648 5647 5646 5645 5643 5640 5636 5634 5632 5632 5632 5634 5636 5639 5643 5646 5651 5656 5661 5667 5672 5678 5682 5690 5695 5701 5707 5713 5720 5724 5730 5734 5739 5745 5747 5756 5755 5758 5759 5764 5767 5770 5773 5776 5779 5782
5641 5642 5643 5644 5645 5645 5645 5646 5645 5644 5644 5643 5641 5640 5638 5636 5634 5633 5633 5635 5636 5638 5642 5644 5647 5652 5655 5658 5662 5668 5672 5678 5684 5689 5696 5702 5709 5712 5719 5725 5728 5735 5739 5742 5746 5748 5751 5755 5758 5761 5764 5766 5769 5771
5634 5635 5636 5637 5638 5639 5640 5641 5641 5640 5640 5640 5639 5639 5638 5637 5635 5634 5634 5634 5636 5638 5639 5642 5644 5647 5650 5652 5655 5657 5662 5667 5673 5680 5687 5692 5697 5702 5709 5711 5717 5723 5729 5733 5735 5739 5741 5744 5748 5752 5757 5759 5761 5763
5625 5627 5628 5629 5631 5633 5634 5635 5636 5636 5636 5636 5636 5636 5635 5635 5635 5634 5634 5634 5634 5637 5637 5639 5641 5642 5644 5645 5648 5651 5654 5659 5663 5669 5674 5680 5685 5693 5697 5704 5710 5714 5720 5726 5728 5730 5734 5737 5740 5744 5749 5751 5754 5757
5615 5617 5619 5621 5623 5625 5627 5629 5630 5631 5631 5632 5632 5632 5632 5633 5633 5633 5633 5633 5632 5632 5634 5636 5638 5639 5640 5641 5643 5645 5647 5650 5654 5660 5665 5671 5675 5682 5689 5696 5696 5702 5709 5713 5717 5722 5727 5730 5733 5737 5741 5745 5748 5750
5606 5608 5610 5612 5615 5617 5620 5622 5624 5626 5626 5627 5628 5628 5629 5630 5630 5630 5630 5630 5628 5628 5629 5632 5634 5635 5635 5636 5637 5639 5640 5644 5647 5651 5658 5662 5666 5670 5679 5685 5688 5693 5699 5705 5710 5715 5719 5723 5726 5729 5733 5737 5740 5743
5596 5598 5601 5603 5606 5609 5612 5614 5617 5619 5621 5622 5623 5624 5625 5626 5627 5628 5627 5626 5626 5626 5626 5627 5629 5630 5631 5632 5632 5633 5635 5637 5642 5648 5653 5659 5661 5666 5672 5678 5683 5687 5690 5695 5701 5707 5710 5715 5719 5723 5726 5729 5732 5736
5585 5588 5592 5595 5598 5601 5604 5607 5610 5612 5615 5617 5619 5620 5621 5623 5624 5624 5624 5623 5622 5623 5622 5622 5622 5623 5624 5625 5626 5627 5629 5632 5636 5641 5647 5652 5656 5661 5669 5674 5676 5678 5683 5687 5693 5699 5702 5706 5711 5716 5719 5722 5725 5728
5575 5579 5582 5586 5590 5594 5597 5600 5603 5605 5608 5611 5614 5615 5617 5619 5620 5621 5620 5618 5618 5618 5618 5618 5618 5619 5620 5619 5621 5621 5622 5625 5630 5636 5637 5643 5652 5657 5664 5667 5669 5673 5677 5681 5686 5691 5694 5698 5703 5706 5711 5715 5717 5720
5565 5569 5573 5577 5582 5587 5591 5594 5597 5600 5603 5606 5608 5611 5613 5615 5616 5616 5615 5615 5615 5616 5616 5616 5616 5615 5614 5613 5612 5614 5617 5621 5625 5631 5633 5639 5646 5652 5655 5660 5665 5667 5671 5675 5679 5683 5687 5690 5694 5698 5703 5707 5709 5711
5555 5559 5564 5568 5574 5579 5584 5588 5592 5596 5598 5602 5605 5607 5610 5611 5612 5613 5612 5612 5612 5614 5615 5614 5613 5612 5612 5611 5611 5613 5615 5617 5620 5623 5628 5635 5641 5645 5649 5652 5656 5662 5665 5669 5673 5676 5680 5684 5688 5691 5695 5698 5701 5703
5545 5550 5555 5560 5565 5571 5577 5583 5587 5591 5595 5598 5602 5605 5607 5609 5610 5609 5610 5611 5612 5613 5614 5612 5612 5612 5612 5612 5612 5613 5615 5617 5619 5622 5626 5631 5633 5636 5640 5647 5654 5657 5660 5664 5667 5671 5674 5678 5681 5683 5687 5689 5692 5695
5538 5542 5547 5553 5559 5564 5571 5577 5582 5587 5591 5595 5599 5602 5605 5606 5607 5608 5609 5611 5612 5612 5612 5611 5610 5611 5611 5611 5612 5613 5614 5617 5619 5622 5625 5626 5629 5636 5641 5644 5647 5651 5654 5658 5661 5665 5668 5671 5674 5676 5679 5682 5685 5688
5533 5536 5541 5547 5552 5558 5565 5571 5577 5583 5587 5592 5596 5600 5603 5605 5606 5608 5609 5611 5611 5610 5609 5608 5607 5610 5610 5609 5611 5613 5616 5618 5619 5621 5623 5625 5628 5631 5635 5638 5642 5646 5650 5654 5657 5660 5662 5665 5669 5672 5674 5677 5680 5683
5527 5531 5535 5540 5546 5553 5560 5567 5573 5579 5585 5590 5594 5598 5601 5602 5606 5607 5608 5610 5611 5609 5609 5608 5609 5610 5611 5612 5613 5615 5616 5618 5620 5621 5623 5625 5627 5629 5633 5636 5640 5644 5647 5650 5653 5656 5658 5661 5665 5668 5671 5675 5678 5681
5520 5524 5530 5536 5541 5548 5555 5563 5570 5576 5583 5588 5593 5596 5599 5602 5605 5607 5608 5609 5609 5609 5610 5609 5608 5610 5612 5613 5614 5615 5617 5619 5620 5622 5623 5625 5628 5630 5633 5636 5639 5642 5645 5647 5650 5654 5657 5661 5664 5666 5670 5675 5678 5682
5513 5520 5527 5532 5538 5545 5552 5560 5568 5574 5581 5587 5591 5596 5599 5602 5605 5607 5608 5609 5609 5609 5610 5611 5611 5611 5612 5613 5615 5616 5617 5618 5620 5623 5624 5626 5628 5630 5633 5636 5639 5642 5644 5647 5651 5654 5657 5661 5664 5666 5670 5674 5678 5680
5507 5515 5523 5530 5537 5544 5551 5559 5567 5573 5580 5586 5591 5595 5599 5602 5605 5607 5608 5609 5609 5609 5610 5611 5612 5612 5613 5614 5615 5616 5618 5619 5621 5623 5625 5627 5629 5632 5634 5637 5641 5644 5646 5649 5652 5655 5657 5661 5664 5668 5672 5676 5679 5681
5502 5510 5520 5529 5536 5544 5552 5560 5567 5574 5581 5587 5591 5595 5599 5603 5606 5607 5608 5609 5610 5611 5612 5613 5613 5614 5613 5615 5615 5615 5617 5618 5622 5625 5627 5629 5631 5633 5637 5640 5644 5647 5649 5652 5654 5656 5660 5664 5667 5671 5675 5678 5680 5682
5498 5510 5521 5530 5539 5546 5554 5562 5569 5576 5582 5588 5593 5597 5601 5604 5606 5608 5610 5611 5612 5612 5613 5613 5615 5616 5617 5617 5617 5618 5622 5624 5626 5628 5630 5632 5634 5636 5640 5643 5645 5650 5653 5656 5659 5662 5665 5668 5670 5673 5676 5679 5681 5682
5503 5516 5526 5535 5543 5551 5559 5566 5573 5579 5586 5590 5595 5599 5603 5606 5609 5610 5612 5613 5614 5615 5616 5617 5619 5620 5621 5621 5622 5623 5625 5626 5629 5631 5634 5636 5638 5641 5644 5647 5651 5654 5656 5659 5662 5665 5667 5670 5672 5674 5676 5678 5679 5681
5515 5525 5534 5542 5550 5557 5565 5571 5578 5584 5590 5594 5599 5603 5607 5609 5611 5614 5615 5617 5619 5619 5620 5622 5623 5625 5626 5626 5627 5629 5631 5632 5634 5636 5638 5640 5643 5646 5648 5651 5654 5656 5658 5661 5663 5665 5667 5670 5671 5673 5674 5676 5677 5677
5529 5537 5544 5551 5558 5565 5571 5577 5584 5590 5595 5599 5603 5607 5610 5613 5615 5617 5618 5620 5623 5624 5626 5627 5629 5630 5632 5633 5634 5635 5636 5638 5640 5642 5643 5646 5648 5649 5651 5653 5654 5656 5659 5661 5663 5664 5666 5669 5670 5672 5673 5673 5673 5673
5545 5551 5557 5562 5568 5574 5580 5586 5592 5596 5599 5603 5607 5610 5613 5616 5619 5621 5622 5624 5626 5628 5630 5631 5633 5635 5636 5638 5639 5640 5642 5643 5645 5646 5648 5649 5651 5652 5654 5655 5657 5659 5661 5662 5664 5665 5667 5668 5670 5670 5670 5670 5669 5667
5559 5564 5570 5573 5580 5585 5590 5594 5598 5601 5605 5608 5611 5615 5617 5620 5622 5623 5626 5628 5631 5633 5634 5636 5638 5639 5640 5641 5642 5644 5645 5646 5648 5649 5650 5652 5654 5655 5657 5658 5659 5661 5662 5663 5664 5665 5666 5666 5666 5666 5665 5664 5662 5660
5575 5579 5583 5587 5591 5594 5597 5600 5604 5607 5611 5614 5617 5620 5622 5624 5626 5628 5630 5633 5635 5637 5639 5641 5642 5644 5645 5646 5647 5648 5649 5651 5652 5653 5654 5655 5656 5658 5659 5659 5660 5660 5661 5661 5661 5661 5661 5661 5660 5659 5658 5656 5654 5652
5591 5593 5595 5598 5600 5602 5605 5607 5610 5613 5617 5620 5624 5626 5627 5630 5630 5632 5634 5636 5638 5640 5642 5644 5646 5648 5649 5650 5651 5652 5653 5653 5654 5655 5657 5657 5658 5658 5658 5659 5659 5659 5659 5658 5658 5658 5657 5655 5654 5652 5650 5648 5646 5643
5600 5602 5604 5605 5607 5610 5612 5614 5617 5620 5623 5625 5628 5631 5632 5633 5635 5637 5639 5640 5642 5644 5646 5648 5649 5650 5651 5652 5653 5654 5655 5656 5656 5657 5657 5657 5658 5658 5657 5657 5657 5656 5656 5655 5654 5653 5651 5649 5647 5644 5642 5640 5637 5634
5610 5611 5612 5613 5615 5617 5618 5621 5623 5625 5627 5629 5632 5636 5637 5638 5639 5641 5643 5644 5645 5647 5648 5650 5651 5652 5652 5653 5654 5654 5655 5655 5656 5656 5656 5656 5656 5656 5655 5655 5654 5653 5651 5649 5647 5645 5643 5641 5639 5636 5634 5631 5628 5625
5620 5620 5621 5621 5623 5623 5624 5625 5627 5630 5632 5634 5636 5639 5641 5642 5643 5644 5646 5646 5647 5648 5649 5650 5651 5652 5653 5653 5653 5654 5654 5654 5654 5653 5653 5653 5652 5651 5651 5650 5648 5647 5645 5643 5641 5639 5637 5634 5631 5629 5626 5624 5621 5618
5626 5628 5630 5631 5632 5631 5631 5632 5634 5635 5636 5638 5640 5641 5643 5644 5645 5646 5647 5648 5648 5649 5650 5651 5651 5652 5652 5652 5652 5652 5652 5651 5651 5651 5650 5649 5648 5647 5646 5644 5642 5641 5639 5637 5634 5632 5629 5627 5625 5622 5619 5616 5613 5610
5635 5635 5636 5637 5636 5636 5637 5639 5639 5640 5641 5642 5644 5645 5646 5647 5647 5648 5648 5649 5649 5649 5650 5650 5650 5650 5650 5650 5650 5649 5649 5648 5648 5647 5646 5645 5644 5642 5640 5639 5637 5635 5633 5631 5629 5626 5624 5621 5618 5615 5612 5608 5605 5601
Wind_Speed
16 15 14 14 13 11 9 8 7 8 9 11 13 13 11 8 7 5 3 3 15 25 27 28 30 32 33 36 37 34 39 41 40 41 30 29 34 34 41 39 36 34 31 25 30 32 33 45 41 40 42 41 41 38
18 17 16 15 14 13 11 10 9 8 9 10 11 12 12 9 6 4 1 2 5 8 12 15 18 20 24 28 31 34 37 32 40 40 40 39 39 47 39 36 40 40 38 27 35 30 37 35 35 33 39 44 44 42
21 20 18 18 17 16 14 12 11 10 10 10 10 10 11 9 5 2 1 5 8 9 10 14 14 15 17 21 27 31 36 43 37 36 37 42 43 40 38 41 44 36 36 37 34 36 35 34 33 32 29 30 32 34
22 23 22 21 20 19 18 16 14 14 13 11 11 9 8 8 7 3 1 3 6 10 11 11 13 13 15 18 21 29 36 40 44 45 40 41 37 37 35 40 43 39 33 29 31 32 30 29 30 31 28 25 25 26
27 25 24 24 23 22 21 20 18 17 15 13 13 11 8 8 7 5 3 3 5 6 6 8 9 10 14 17 22 27 32 37 47 47 38 35 42 38 38 36 36 39 36 32 29 29 30 28 27 26 24 22 22 25
26 26 27 26 25 24 23 21 20 19 17 15 14 13 10 9 8 8 6 4 7 10 12 9 8 10 12 14 17 24 28 39 40 35 40 36 41 42 37 34 40 42 37 31 33 28 23 21 23 25 25 27 27 25
28 29 28 26 26 25 23 22 21 20 19 17 15 14 12 10 9 9 10 10 8 11 14 13 12 11 15 17 19 20 26 34 40 36 38 24 30 54 43 35 34 35 38 40 35 31 30 25 23 23 23 26 29 32
30 28 27 27 26 25 24 23 21 20 20 18 16 15 12 11 10 9 10 13 10 8 9 11 12 14 15 16 17 20 22 29 38 35 34 27 28 34 31 30 30 30 33 36 40 35 33 29 26 25 24 25 26 29
31 30 28 26 24 24 24 23 21 20 19 17 16 14 12 11 10 9 12 14 9 7 10 10 11 12 15 20 24 25 25 25 29 30 31 33 31 28 27 23 26 27 30 34 37 36 33 32 30 28 28 28 28 27
28 29 30 28 26 23 21 21 18 17 18 16 15 12 11 10 9 10 12 9 9 7 5 7 8 11 12 15 18 23 25 31 27 20 28 31 30 33 32 28 24 25 26 29 32 34 34 33 31 30 30 30 31 32
28 27 27 28 27 25 22 21 18 15 15 15 12 11 10 8 8 10 8 8 3 3 3 6 9 11 13 12 12 20 20 22 28 27 26 31 29 29 29 30 30 31 28 29 30 30 29 30 30 29 29 28 28 28
28 28 26 27 28 26 25 22 20 16 14 13 12 11 8 7 7 6 6 4 4 4 2 4 2 8 4 4 8 10 14 13 18 22 24 25 24 26 30 30 32 32 31 28 28 28 29 29 28 27 27 27 29 28
23 28 29 27 28 29 26 23 21 18 16 14 12 10 8 5 2 3 5 5 6 2 4 2 5 4 3 3 4 9 12 11 13 13 13 16 25 31 35 32 26 28 26 26 26 25 26 26 25 25 26 26 23 21
18 21 28 29 28 29 29 26 22 20 18 16 14 11 8 5 4 9 6 11 6 1 5 13 7 6 5 8 6 12 14 11 11 14 17 20 28 26 24 22 24 24 24 25 25 23 23 22 23 23 22 23 24 26
16 17 20 28 30 30 30 27 24 21 19 17 15 11 8 6 13 10 9 7 1 6 7 4 4 5 6 1 6 11 9 14 13 13 7 11 11 15 17 18 20 22 24 23 22 21 20 21 22 22 22 20 19 23
24 21 21 21 30 31 30 29 26 23 20 19 15 11 9 11 16 9 7 5 2 2 4 4 6 4 5 10 9 9 12 12 9 6 10 11 11 15 17 19 20 21 21 21 19 20 20 20 21 21 18 22 24 23
19 26 22 23 26 31 30 29 27 26 22 19 15 12 11 18 12 10 8 4 5 3 6 8 5 5 11 9 8 9 11 6 8 9 9 10 12 15 16 17 15 14 15 15 16 16 17 18 19 13 18 21 16 15
25 27 25 26 26 31 30 28 26 26 25 20 16 14 15 16 11 9 6 2 2 3 6 5 2 12 9 8 10 9 11 10 11 10 9 9 11 12 13 14 11 10 11 12 13 14 14 11 8 9 11 12 12 12
30 29 30 28 28 30 30 28 26 27 26 21 18 15 16 15 10 6 3 4 6 7 7 8 4 7 6 6 6 7 9 12 15 13 11 13 12 13 14 17 15 14 13 14 12 15 16 12 13 13 14 12 10 11
28 33 34 32 29 30 30 27 27 28 26 22 18 18 17 13 9 6 6 7 9 9 6 7 5 7 9 3 7 5 7 13 14 14 13 12 15 18 18 15 15 14 7 14 22 24 22 20 17 15 15 11 9 8
32 39 37 33 30 30 29 27 27 28 25 22 21 19 16 13 10 11 12 11 7 6 6 8 16 13 8 9 15 15 18 12 14 15 14 16 14 20 21 22 12 10 16 19 17 16 15 14 16 13 10 8 7 9
43 42 37 33 31 30 29 27 28 28 25 24 21 19 17 15 15 13 11 12 14 15 14 14 13 14 14 14 15 16 14 18 16 15 16 16 18 21 19 20 21 16 12 12 7 7 7 7 7 5 5 5 3 2
43 39 35 32 32 32 29 30 30 29 27 24 21 21 21 16 16 15 13 13 15 18 18 21 19 17 15 16 20 18 17 14 14 12 13 15 16 17 15 14 12 10 11 10 6 2 5 6 5 5 7 8 10 12
41 37 35 35 33 31 33 32 32 30 26 23 24 21 19 20 18 14 12 12 16 16 15 15 12 11 12 14 16 19 18 16 15 20 18 14 11 9 9 9 8 11 10 9 8 9 6 7 9 10 14 14 17 20
38 36 36 35 35 36 37 36 29 25 25 26 22 20 20 17 18 14 16 17 15 13 14 14 11 11 11 10 11 10 9 8 10 8 8 8 10 13 13 14 13 13 12 9 8 9 10 13 15 17 21 25 27 29
38 37 37 38 38 36 30 26 28 26 25 22 23 22 18 20 21 22 23 20 14 12 11 12 12 9 8 10 10 11 11 12 12 10 9 11 14 14 14 12 10 8 5 2 2 4 7 10 13 16 19 22 24 26
40 39 37 33 28 26 27 24 24 25 24 24 22 21 21 22 23 22 20 17 14 15 17 16 14 13 10 11 12 11 10 12 13 13 13 13 11 7 4 1 2 5 7 8 9 10 13 16 18 20 21 23 25 26
29 27 27 28 25 23 22 24 25 25 25 21 17 14 14 17 22 23 20 19 18 17 18 15 11 11 10 10 11 10 8 8 9 8 6 3 1 6 8 9 10 11 13 14 16 18 19 20 22 23 23 24 25 27
27 26 24 23 22 21 22 23 23 22 18 17 16 15 18 20 20 19 18 17 16 18 16 13 11 9 7 6 5 4 3 4 3 3 4 6 7 9 11 14 15 16 17 18 20 21 21 21 21 23 25 28 29 28
24 20 19 20 19 20 22 21 21 21 21 20 16 13 14 16 16 16 15 14 14 14 13 11 6 6 5 6 5 5 5 6 7 9 11 11 11 12 14 15 17 18 19 20 21 22 23 24 26 27 27 27 26 25
28 27 23 18 15 17 18 18 20 20 19 19 20 16 13 11 11 11 11 11 11 13 13 9 4 2 2 3 4 5 6 7 9 11 12 14 16 18 19 21 22 22 22 23 24 26 27 27 27 26 25 23 23 24
25 23 19 19 22 23 24 22 21 20 19 16 14 13 10 9 8 6 7 7 7 6 5 3 3 3 4 6 7 8 9 10 12 13 15 16 18 19 20 22 23 25 26 27 26 24 22 21 21 21 22 24 26 27
15 16 14 11 14 17 19 17 17 17 17 15 13 11 8 8 7 6 4 3 2 2 3 3 4 5 7 8 9 10 11 12 13 15 17 20 21 22 23 22 20 18 16 16 17 18 19 22 24 26 28 29 31 32
Wind_Direction
267 265 267 266 265 272 281 292 316 336 346 357 8 6 4 9 21 34 69 157 215 215 214 223 229 230 229 230 229 233 232 232 233 234 224 231 219 231 232 221 223 233 240 239 239 239 243 249 247 244 247 253 257 263
263 261 260 259 260 263 268 275 294 312 325 337 354 8 8 5 18 31 48 178 175 187 196 203 212 220 224 224 226 222 226 231 233 231 224 215 230 226 227 229 232 236 235 223 240 244 252 254 252 248 247 248 253 258
255 260 258 256 256 259 265 268 278 293 311 319 324 344 6 12 8 25 113 193 207 206 198 204 204 207 216 221 223 224 223 218 221 226 235 237 238 238 232 226 225 235 237 238 244 247 251 253 253 252 248 250 250 252
253 256 259 257 255 257 261 267 275 285 294 306 310 309 333 3 10 358 350 185 189 209 214 211 212 215 226 232 229 226 223 220 214 218 230 231 226 230 223 225 229 221 226 235 234 234 240 244 244 245 241 242 244 244
255 254 256 257 256 255 256 260 267 277 284 296 301 298 298 321 348 355 315 280 240 228 214 205 214 228 228 232 230 227 225 221 222 225 223 217 224 223 225 225 222 217 228 228 231 226 230 232 230 234 234 234 238 243
254 254 253 254 254 254 255 257 259 266 275 285 294 293 286 288 305 333 341 289 275 263 245 228 225 229 232 233 240 231 230 222 227 228 220 217 233 216 220 224 222 219 214 222 226 225 232 237 236 236 238 237 238 245
256 253 250 250 250 251 252 253 256 259 265 273 282 283 276 271 284 311 329 332 302 273 260 251 242 248 244 243 240 243 238 227 228 231 229 245 236 219 216 216 226 222 225 229 231 232 234 237 238 239 239 241 242 245
254 252 251 248 247 248 250 251 252 255 259 264 269 273 268 258 263 284 306 314 307 270 261 258 253 248 241 237 243 241 237 232 230 232 231 228 213 208 212 215 224 221 221 224 228 231 232 236 236 236 237 240 244 243
252 249 248 248 246 245 245 246 249 250 250 253 257 264 257 248 251 272 292 307 296 276 273 269 257 249 245 244 244 244 239 234 230 223 226 226 220 214 205 214 216 218 227 225 223 230 231 235 235 230 229 230 235 238
250 248 246 243 243 238 237 235 238 242 239 240 248 251 240 242 251 276 299 295 291 274 264 248 250 257 259 258 252 243 236 230 232 226 216 215 221 219 216 220 223 222 228 229 225 225 228 230 230 230 230 234 239 244
242 241 239 238 236 233 229 223 224 231 229 227 229 228 230 241 264 291 296 295 239 249 262 278 281 291 281 271 238 226 233 234 234 232 224 209 210 223 225 226 228 229 234 233 231 227 226 225 226 230 235 239 241 241
239 234 231 230 229 226 223 219 218 219 216 213 211 216 223 240 276 294 290 204 214 184 91 46 338 338 302 187 170 199 206 222 224 226 221 206 209 219 220 223 229 233 235 235 235 229 227 227 230 234 236 236 237 244
236 230 226 221 220 219 216 212 211 209 205 204 203 207 214 236 268 266 181 151 126 211 240 318 258 290 219 242 215 174 171 187 189 201 204 194 201 211 214 223 226 232 234 235 229 225 225 226 227 231 231 234 238 239
236 230 224 218 213 212 211 208 205 202 199 198 196 202 207 194 203 161 162 151 196 132 304 311 245 244 270 204 164 177 177 179 187 183 185 196 203 211 218 224 231 229 223 217 216 220 221 222 220 224 226 231 235 219
230 225 225 216 210 206 204 203 200 198 195 193 194 199 190 188 169 160 155 173 225 292 294 280 235 222 223 183 140 173 194 170 174 179 208 183 196 201 205 209 211 209 207 207 210 217 220 218 215 221 217 204 194 194
220 222 215 213 207 202 199 198 197 194 193 192 193 190 184 178 164 165 158 163 244 24 56 169 184 156 166 144 143 164 178 185 184 180 166 163 176 180 187 192 196 197 200 209 215 217 210 196 191 193 196 198 207 216
218 222 208 206 203 197 193 193 194 191 189 189 186 180 169 166 171 174 167 183 201 220 148 109 132 130 165 155 175 180 179 184 158 164 178 164 174 180 186 185 184 193 197 199 188 182 193 198 201 204 211 215 187 214
214 215 209 198 194 192 187 187 187 185 186 183 180 173 172 174 175 175 174 194 168 172 184 198 124 133 161 211 187 195 191 176 160 162 173 153 168 173 168 165 176 208 180 172 184 188 191 180 186 153 166 194 192 174
211 201 198 192 183 183 181 180 181 180 180 176 171 168 168 173 181 164 145 144 151 160 175 173 166 154 164 178 183 189 190 182 155 153 148 152 159 169 173 154 158 163 169 184 188 172 148 154 148 139 150 155 161 171
209 201 187 179 174 175 173 172 172 172 171 166 163 160 162 160 152 154 147 134 136 138 152 135 137 175 171 171 160 167 149 141 137 147 147 151 155 150 151 148 152 157 139 128 131 128 131 133 137 151 155 162 171 174
180 172 169 165 164 164 163 163 163 163 161 157 155 154 148 145 142 136 118 95 100 99 95 96 117 113 127 136 137 127 121 143 141 139 150 145 148 131 149 152 166 141 143 140 126 127 124 129 124 118 127 147 174 195
153 155 153 154 154 153 152 152 152 153 150 150 150 145 138 134 127 133 114 98 91 93 113 118 129 117 94 107 128 134 137 131 137 148 138 118 119 147 152 146 141 143 138 141 118 136 164 172 177 175 176 165 166 243
140 142 141 140 142 144 145 144 142 142 143 145 141 135 131 127 125 118 101 96 102 82 105 107 101 86 82 94 112 117 130 141 146 138 134 145 142 131 134 136 146 140 156 159 160 152 180 213 237 232 234 259 275 293
130 130 130 134 135 137 136 136 134 133 135 135 132 130 128 127 121 124 119 116 108 100 102 90 87 88 94 100 109 106 97 93 109 124 125 130 139 146 158 164 161 162 173 187 188 179 194 205 204 225 223 246 269 274
120 123 127 129 131 130 129 127 126 132 136 135 136 134 136 136 137 128 125 116 112 118 113 106 98 87 88 95 106 118 114 91 95 109 136 132 124 130 144 153 154 153 153 149 148 160 182 211 232 243 249 259 270 278
114 118 121 123 125 127 128 130 131 134 135 135 133 135 138 148 141 134 123 117 124 129 114 114 103 101 92 81 101 118 127 131 135 140 140 140 143 142 139 139 139 137 138 155 239 251 256 263 270 277 281 285 289 293
110 115 118 121 122 124 129 130 133 136 136 135 133 145 148 147 137 124 118 121 124 120 110 106 118 120 105 108 115 119 122 132 136 136 139 145 146 133 115 90 337 317 313 312 309 306 304 302 300 298 298 299 300 302
103 109 117 125 130 130 130 132 134 134 139 139 145 148 153 146 134 124 122 123 127 129 129 123 133 123 111 110 119 124 125 150 164 165 160 157 316 329 332 330 327 324 321 318 313 309 305 303 302 300 298 298 300 304
108 112 117 121 123 124 128 132 131 130 136 138 140 148 140 135 132 128 130 131 133 135 130 133 140 138 136 132 133 146 162 176 190 224 270 291 303 307 316 320 319 315 311 306 302 300 300 300 300 302 305 307 307 306
101 106 112 114 119 126 130 133 133 130 124 123 135 150 141 131 131 134 137 140 145 145 140 141 128 127 152 185 211 233 248 267 273 272 283 291 295 296 302 305 306 309 312 313 311 309 307 305 304 304 306 306 304 302
91 89 91 101 122 125 124 127 132 131 126 126 131 137 138 138 139 146 155 158 153 163 166 166 191 244 231 233 255 272 277 280 285 289 293 297 301 305 309 309 309 308 306 305 304 305 307 307 306 305 306 306 306 306
99 95 93 100 106 107 111 116 119 120 119 122 132 140 144 147 148 155 164 169 173 175 182 202 236 267 280 286 289 292 295 299 299 300 302 303 303 303 302 303 304 306 307 308 307 307 307 308 309 308 305 304 304 304
87 90 94 103 108 107 106 108 113 117 119 123 126 126 131 135 137 138 150 173 205 241 260 271 278 282 284 284 285 286 288 292 297 299 301 301 301 301 301 302 305 309 312 313 314 314 312 310 309 308 309 309 309 309